Overview Statistics Trail Chart Weather Telemetry Raw packets
 

This is the latest recevied weather packets stored in our database for station/object KG4GJX. If no packets are shown the sender has not sent any weather packets the latest 10 day(s).

<< 9 10 11 12 13 14 15 >>
Time Temp. Humidity Pressure Rain* Wind** Luminosity Snow
1788440620 24.44° C 100% 1019.3 hPa 0 mm - - -
1788439958 23.89° C 100% 1019.6 hPa 0 mm - - -
1788439296 23.33° C 100% 1019.6 hPa 0 mm - - -
1788438634 22.78° C 100% 1019.6 hPa 0 mm - - -
1788437971 22.22° C 100% 1019.3 hPa 0 mm - - -
1788436648 21.67° C 100% 1019.3 hPa 0 mm - - -
1788434665 21.67° C 100% 1018.9 hPa 0 mm - - -
1788433343 21.67° C 100% 1018.6 hPa 0 mm - - -
1788431361 21.67° C 100% 1018.2 hPa 0 mm - - -
1788429378 21.67° C 100% 1017.9 hPa 0 mm - - -
1788428716 21.67° C 100% 1018.2 hPa 0 mm - - -
1788427394 21.67° C 100% 1017.9 hPa 0 mm - - -
1788422111 22.22° C 100% 1017.9 hPa 0 mm - - -
1788420789 22.78° C 100% 1017.9 hPa 0 mm - - -
1788418159 22.78° C 100% 1017.6 hPa 0 mm - - -
1788416824 22.78° C 100% 1017.9 hPa 0 mm - - -
1788413521 23.33° C 100% 1017.9 hPa 0 mm - - -
1788412859 23.33° C 100% 1018.2 hPa 0 mm - - -
1788412196 23.89° C 100% 1018.2 hPa 0 mm - - -
1788409554 23.33° C 100% 1018.2 hPa 0 mm - - -
1788406912 23.89° C 100% 1018.2 hPa 0 mm - - -
1788406250 24.44° C 100% 1018.6 hPa 0 mm - - -
1788404927 24.44° C 100% 1018.2 hPa 0 mm - - -
1788404265 24.44° C 100% 1018.6 hPa 0 mm - - -
1788403602 24.44° C 99% 1018.2 hPa 0 mm - - -

* Rain latest hour (hover to see other rain measurements)
** Current wind speed in m/s (hover to see current wind gust speed)